• In Hungary
  • List of Countries
  • For 7 days
  • Water Temperature
  • Satellite Maps
  • Weather Map
  • News
  • Weather Widgets
  • user-avatar
    Login

    Hourly Weather Gaynovo

    Today, 20 August, Monday

    Time Temperature Precipitation Wind Pressure Humidity
    00:00 +16°C° 0 mm 2 mps 742 mmHg 96%
    01:00 +15°C° 0 mm 2 mps 742 mmHg 95%
    02:00 +15°C° 0 mm 2 mps 742 mmHg 96%
    03:00 +15°C° 0 mm 2 mps 742 mmHg 96%
    04:00 +15°C° 0 mm 2 mps 742 mmHg 96%
    05:00 +15°C° 0 mm 2 mps 742 mmHg 96%
    06:00 +16°C° 0 mm 2 mps 742 mmHg 94%
    07:00 +17°C° 0 mm 2 mps 742 mmHg 92%
    08:00 +18°C° 0 mm 2 mps 742 mmHg 89%
    09:00 +18°C° 0.3 mm 3 mps 742 mmHg 89%
    10:00 +19°C° 0.3 mm 3 mps 742 mmHg 88%
    11:00 +19°C° 0.3 mm 3 mps 742 mmHg 87%
    12:00 +19°C° 0.6 mm 3 mps 742 mmHg 87%
    13:00 +20°C° 0.6 mm 3 mps 741 mmHg 87%
    14:00 +20°C° 0.6 mm 2 mps 741 mmHg 87%
    15:00 +20°C° 0.4 mm 2 mps 741 mmHg 88%
    16:00 +20°C° 0.4 mm 2 mps 741 mmHg 89%
    17:00 +20°C° 0.4 mm 2 mps 740 mmHg 89%
    18:00 +19°C° 0.1 mm 2 mps 740 mmHg 92%
    19:00 +18°C° 0.1 mm 2 mps 739 mmHg 94%
    20:00 +17°C° 0.1 mm 2 mps 739 mmHg 96%
    21:00 +17°C° 0 mm 2 mps 738 mmHg 96%
    22:00 +17°C° 0 mm 3 mps 738 mmHg 95%
    23:00 +17°C° 0 mm 3 mps 738 mmHg 94%

    Tomorrow, 21 August, Tuesday

    Time Temperature Precipitation Wind Pressure Humidity
    00:00 +17°C° 0.1 mm 4 mps 737 mmHg 94%
    01:00 +17°C° 0.1 mm 4 mps 736 mmHg 94%
    02:00 +17°C° 0.1 mm 4 mps 736 mmHg 94%
    03:00 +17°C° 0.2 mm 4 mps 735 mmHg 93%
    04:00 +16°C° 0.2 mm 5 mps 734 mmHg 93%
    05:00 +16°C° 0.2 mm 5 mps 734 mmHg 92%
    06:00 +16°C° 1 mm 5 mps 733 mmHg 92%
    07:00 +16°C° 1 mm 5 mps 733 mmHg 93%
    08:00 +17°C° 1 mm 5 mps 733 mmHg 93%
    09:00 +17°C° 0.5 mm 6 mps 733 mmHg 88%
    10:00 +17°C° 0.5 mm 6 mps 733 mmHg 83%
    11:00 +19°C° 0.5 mm 6 mps 734 mmHg 78%
    12:00 +19°C° 0.1 mm 6 mps 734 mmHg 73%
    13:00 +19°C° 0.1 mm 6 mps 734 mmHg 67%
    14:00 +19°C° 0.1 mm 6 mps 735 mmHg 62%
    15:00 +17°C° 0.1 mm 6 mps 735 mmHg 64%
    16:00 +16°C° 0.1 mm 5 mps 735 mmHg 65%
    17:00 +16°C° 0.1 mm 5 mps 736 mmHg 67%
    18:00 +14°C° 0.1 mm 4 mps 736 mmHg 73%
    19:00 +13°C° 0.1 mm 4 mps 737 mmHg 79%
    20:00 +11°C° 0.1 mm 3 mps 737 mmHg 86%
    21:00 +11°C° 0 mm 3 mps 737 mmHg 86%
    22:00 +11°C° 0 mm 3 mps 737 mmHg 87%
    23:00 +10°C° 0 mm 3 mps 738 mmHg 87%

    Day after tomorrow, 22 August, Wednesday

    Time Temperature Precipitation Wind Pressure Humidity
    00:00 +10°C° 0 mm 3 mps 738 mmHg 86%
    01:00 +10°C° 0 mm 3 mps 738 mmHg 85%
    02:00 +10°C° 0 mm 4 mps 738 mmHg 84%
    03:00 +10°C° 0 mm 4 mps 739 mmHg 85%
    04:00 +10°C° 0 mm 4 mps 739 mmHg 86%
    05:00 +8°C° 0 mm 4 mps 740 mmHg 86%
    06:00 +11°C° 0 mm 4 mps 740 mmHg 80%
    07:00 +12°C° 0 mm 4 mps 741 mmHg 74%
    08:00 +13°C° 0 mm 5 mps 741 mmHg 68%
    09:00 +14°C° 0 mm 5 mps 741 mmHg 62%
    10:00 +15°C° 0 mm 5 mps 742 mmHg 56%
    11:00 +16°C° 0 mm 5 mps 742 mmHg 50%
    12:00 +16°C° 0 mm 5 mps 743 mmHg 49%
    13:00 +17°C° 0 mm 5 mps 743 mmHg 47%
    14:00 +17°C° 0 mm 5 mps 743 mmHg 46%
    15:00 +16°C° 0 mm 5 mps 743 mmHg 49%
    16:00 +17°C° 0 mm 4 mps 744 mmHg 52%
    17:00 +17°C° 0 mm 3 mps 744 mmHg 54%
    18:00 +14°C° 0 mm 3 mps 745 mmHg 60%
    19:00 +13°C° 0 mm 2 mps 745 mmHg 65%
    20:00 +10°C° 0 mm 2 mps 746 mmHg 71%
    21:00 +9°C° 0 mm 2 mps 746 mmHg 74%
    22:00 +9°C° 0 mm 2 mps 746 mmHg 77%
    23:00 +8°C° 0 mm 2 mps 747 mmHg 80%

    23 August, Thursday

    Time Temperature Precipitation Wind Pressure Humidity
    00:00 +7°C° 0 mm 2 mps 747 mmHg 82%
    01:00 +7°C° 0 mm 2 mps 747 mmHg 83%
    02:00 +7°C° 0 mm 2 mps 748 mmHg 85%
    03:00 +7°C° 0 mm 2 mps 748 mmHg 85%
    04:00 +7°C° 0 mm 2 mps 748 mmHg 86%
    05:00 +6°C° 0 mm 2 mps 748 mmHg 87%
    06:00 +9°C° 0 mm 2 mps 748 mmHg 79%
    07:00 +12°C° 0 mm 2 mps 748 mmHg 72%
    08:00 +14°C° 0 mm 2 mps 748 mmHg 64%
    09:00 +16°C° 0 mm 2 mps 748 mmHg 59%
    10:00 +17°C° 0 mm 2 mps 748 mmHg 54%
    11:00 +18°C° 0 mm 2 mps 748 mmHg 49%
    12:00 +19°C° 0 mm 3 mps 748 mmHg 48%
    13:00 +20°C° 0 mm 3 mps 748 mmHg 47%
    14:00 +20°C° 0 mm 3 mps 748 mmHg 46%
    15:00 +20°C° 0 mm 2 mps 747 mmHg 50%
    16:00 +19°C° 0 mm 2 mps 747 mmHg 55%
    17:00 +19°C° 0 mm 2 mps 747 mmHg 60%
    18:00 +17°C° 0 mm 2 mps 747 mmHg 66%
    19:00 +15°C° 0 mm 2 mps 747 mmHg 72%
    20:00 +13°C° 0 mm 2 mps 747 mmHg 78%
    21:00 +12°C° 0 mm 2 mps 747 mmHg 80%
    22:00 +12°C° 0 mm 2 mps 747 mmHg 82%
    23:00 +10°C° 0 mm 2 mps 747 mmHg 83%

    24 August, Friday

    Time Temperature Precipitation Wind Pressure Humidity
    00:00 +10°C° 0 mm 2 mps 747 mmHg 85%
    01:00 +9°C° 0 mm 2 mps 747 mmHg 87%
    02:00 +9°C° 0 mm 2 mps 747 mmHg 88%
    03:00 +9°C° 0 mm 2 mps 747 mmHg 89%
    04:00 +9°C° 0 mm 2 mps 747 mmHg 91%
    05:00 +8°C° 0 mm 2 mps 747 mmHg 92%
    06:00 +10°C° 0 mm 2 mps 747 mmHg 84%
    07:00 +13°C° 0 mm 2 mps 747 mmHg 77%
    08:00 +16°C° 0 mm 3 mps 747 mmHg 69%
    09:00 +17°C° 0 mm 3 mps 746 mmHg 63%
    10:00 +19°C° 0 mm 3 mps 746 mmHg 57%
    11:00 +21°C° 0 mm 3 mps 746 mmHg 51%
    12:00 +21°C° 0 mm 3 mps 746 mmHg 50%
    13:00 +22°C° 0 mm 3 mps 746 mmHg 49%
    14:00 +22°C° 0 mm 3 mps 745 mmHg 48%
    15:00 +22°C° 0 mm 3 mps 745 mmHg 53%
    16:00 +21°C° 0 mm 2 mps 745 mmHg 58%
    17:00 +21°C° 0 mm 2 mps 744 mmHg 62%
    18:00 +19°C° 0 mm 2 mps 744 mmHg 69%
    19:00 +17°C° 0 mm 2 mps 744 mmHg 75%
    20:00 +15°C° 0 mm 2 mps 744 mmHg 82%
    21:00 +14°C° 0 mm 2 mps 744 mmHg 83%
    22:00 +14°C° 0 mm 2 mps 744 mmHg 85%
    23:00 +13°C° 0 mm 2 mps 744 mmHg 87%

    25 August, Saturday

    Time Temperature Precipitation Wind Pressure Humidity
    00:00 +13°C° 0 mm 2 mps 744 mmHg 88%
    01:00 +13°C° 0 mm 2 mps 744 mmHg 89%
    02:00 +12°C° 0 mm 2 mps 744 mmHg 91%
    03:00 +11°C° 0 mm 3 mps 744 mmHg 90%
    04:00 +11°C° 0 mm 3 mps 744 mmHg 89%
    05:00 +11°C° 0 mm 3 mps 744 mmHg 88%
    06:00 +13°C° 0 mm 3 mps 744 mmHg 81%
    07:00 +16°C° 0 mm 3 mps 744 mmHg 74%
    08:00 +18°C° 0 mm 3 mps 744 mmHg 67%
    09:00 +19°C° 0 mm 4 mps 744 mmHg 61%
    10:00 +21°C° 0 mm 4 mps 744 mmHg 56%
    11:00 +23°C° 0 mm 4 mps 744 mmHg 50%
    12:00 +25°C° 0 mm 4 mps 744 mmHg 48%
    13:00 +25°C° 0 mm 4 mps 743 mmHg 46%
    14:00 +26°C° 0 mm 4 mps 743 mmHg 44%
    15:00 +25°C° 0 mm 4 mps 743 mmHg 49%
    16:00 +24°C° 0 mm 3 mps 743 mmHg 55%
    17:00 +23°C° 0 mm 2 mps 742 mmHg 60%
    18:00 +20°C° 0 mm 2 mps 742 mmHg 66%
    19:00 +19°C° 0 mm 2 mps 742 mmHg 72%
    20:00 +17°C° 0 mm 2 mps 742 mmHg 78%
    21:00 +16°C° 0 mm 2 mps 742 mmHg 78%
    22:00 +14°C° 0 mm 3 mps 742 mmHg 79%
    23:00 +14°C° 0 mm 3 mps 742 mmHg 80%
    Show more